Temperature
17 18 19 19 16 13 16 17 17 18 19 20 20 20 18 18 19 20 20 20 19 19 18 17 15 14 13 13 12 12 12 12 11 11 11 11 10 10 10 10 10 10 10 10 10 10 11 11 11
17 18 19 18 14 14 16 16 17 18 20 20 20 20 19 20 20 21 20 20 19 19 18 17 16 15 13 13 13 12 12 12 11 11 11 10 10 10 10 10 10 10 11 11 11 11 11 11 11
17 18 18 14 14 15 17 17 17 19 20 20 20 20 20 21 21 21 20 20 19 19 18 17 16 15 14 13 12 12 12 12 11 11 11 10 10 10 10 10 11 11 11 11 11 11 11 11 11
17 18 17 14 16 15 17 18 18 19 20 20 20 19 20 21 21 21 20 20 19 19 18 17 16 15 14 13 12 12 12 11 11 11 10 10 10 11 11 11 11 11 11 11 11 11 11 11 11
17 18 14 14 16 16 16 17 18 18 19 20 20 19 20 21 21 21 20 20 19 19 18 17 16 15 14 13 12 12 11 11 11 11 10 10 10 11 11 11 11 11 11 11 11 11 11 11 11
17 15 13 14 16 17 17 18 19 18 19 19 20 19 20 21 21 20 20 19 19 18 18 17 16 15 13 13 12 12 11 11 11 10 10 10 10 11 11 11 11 11 11 11 11 11 11 11 11
17 13 14 15 16 17 18 19 19 18 18 19 20 19 20 20 20 20 20 19 18 18 17 17 16 14 13 12 12 11 11 11 11 10 10 10 10 10 10 10 10 10 10 10 10 10 10 10 10
17 13 15 15 16 17 18 19 19 19 19 20 20 19 20 20 20 20 19 18 18 17 17 16 16 15 13 12 12 11 11 11 10 10 10 10 10 10 10 10 9 9 9 9 9 10 10 10 10
17 13 14 16 17 18 19 19 19 19 20 20 20 20 20 20 20 19 19 18 18 17 16 16 15 15 13 12 12 11 11 10 10 10 10 10 10 9 9 9 9 9 9 9 9 9 9 9 9
16 13 15 17 17 18 18 19 19 19 19 19 20 20 20 20 20 19 19 19 18 18 17 16 15 15 14 12 12 11 11 10 10 10 10 9 9 9 9 9 9 8 8 8 8 8 8 8 8
16 15 16 17 18 18 18 19 19 19 18 19 20 20 20 20 19 19 19 19 19 18 17 16 15 14 14 13 12 11 11 10 10 10 10 9 9 9 9 9 8 8 8 8 8 8 7 7 8
15 16 17 18 19 18 18 19 18 18 19 20 20 20 19 19 19 19 19 19 18 18 17 16 15 14 13 13 12 11 11 10 10 10 10 9 9 9 9 8 8 8 8 8 7 7 7 7 7
16 16 17 18 18 18 18 18 18 18 20 19 19 19 19 19 19 19 18 18 18 17 17 16 15 14 13 13 12 11 11 10 10 10 9 9 9 9 9 8 8 8 8 8 7 7 7 7 7
16 17 17 17 17 17 16 16 16 18 19 19 19 19 19 18 18 18 18 18 17 17 17 16 15 14 13 13 12 12 11 10 10 10 9 9 9 9 9 8 8 8 8 8 7 7 7 7 7
17 16 15 16 16 16 16 15 14 19 18 18 18 18 18 18 18 18 18 17 17 17 16 16 15 14 13 13 12 11 11 10 10 10 9 9 9 9 9 8 8 8 8 8 7 7 7 7 7
16 14 15 15 15 16 16 15 15 18 18 18 18 18 18 18 18 18 17 17 17 17 16 16 15 14 14 13 12 11 11 10 10 10 9 9 9 9 9 8 8 8 8 8 8 7 7 7 7
14 13 14 14 15 15 15 14 15 17 17 17 18 18 18 18 18 17 17 17 17 17 16 16 15 14 14 13 12 11 11 10 10 10 9 9 9 9 9 9 8 8 8 8 8 7 7 7 7
13 13 13 14 15 14 14 13 14 16 16 16 17 17 17 18 18 17 17 17 17 16 16 16 15 14 13 12 12 11 11 10 10 10 10 9 9 9 9 9 8 8 8 8 7 7 7 7 7
14 13 13 13 14 14 13 13 14 15 14 14 15 16 17 18 17 17 16 16 16 16 16 15 15 14 13 12 12 11 11 10 10 10 10 9 9 9 9 8 8 8 8 7 7 7 7 7 6
13 13 13 13 13 13 12 12 13 12 13 15 15 16 17 17 16 16 16 16 16 16 15 15 14 14 13 12 12 11 11 10 10 10 10 9 9 9 9 8 8 8 7 7 7 7 6 6 6
12 12 13 13 13 13 12 12 12 13 14 14 15 16 16 16 16 16 16 16 15 15 15 14 14 13 13 12 12 11 11 10 10 10 9 9 9 9 9 8 8 7 7 7 6 6 6 6 6
12 12 13 13 12 11 12 11 12 13 12 12 13 14 15 16 16 16 15 15 15 15 14 14 13 13 12 12 12 11 11 11 10 10 10 9 9 9 8 8 7 7 7 6 6 6 6 5 5
13 13 13 13 12 11 11 11 11 11 12 13 13 14 15 15 15 15 15 15 14 14 14 13 13 13 12 12 12 11 11 11 10 10 10 9 9 8 8 7 7 7 6 6 6 6 5 5 5
13 12 11 9 10 10 10 10 10 11 13 13 13 14 14 14 14 14 14 14 13 13 13 13 13 12 12 12 12 11 11 11 10 10 9 9 8 8 7 7 7 6 6 6 6 5 5 5 4
13 12 11 11 10 10 10 10 10 12 12 12 13 14 14 13 13 13 13 13 13 13 13 13 12 12 12 12 11 11 11 11 10 10 9 9 8 8 7 7 6 6 6 6 5 5 5 4 4
11 12 11 11 10 9 10 9 11 12 12 13 13 14 14 13 13 13 13 13 13 13 13 13 12 12 12 12 11 11 11 10 10 9 9 8 8 7 7 7 6 6 6 5 5 5 4 4 4
11 11 12 11 10 10 9 9 10 13 14 13 13 12 12 13 13 13 13 13 13 13 13 13 12 12 12 11 11 11 10 10 10 9 9 8 7 7 7 6 6 5 5 5 5 4 4 4 3
11 10 10 10 10 10 10 10 11 13 14 13 11 11 12 12 12 12 13 13 13 13 12 12 12 12 11 11 11 10 10 10 9 9 8 8 7 7 6 6 5 5 5 4 4 4 4 3 3
10 10 10 9 9 9 9 10 11 12 12 11 11 12 12 13 13 13 13 13 12 12 12 12 11 11 11 11 10 10 9 9 8 8 7 7 7 6 6 5 5 5 4 4 4 3 3 3 2
11 10 10 10 9 8 8 10 12 12 11 11 12 14 14 14 13 13 13 13 12 12 12 12 11 11 11 10 10 9 9 8 8 7 7 6 6 6 5 5 5 4 4 3 3 3 2 2 2
Wind_Speed
5 4 3 4 5 5 2 4 3 3 3 2 2 6 9 6 5 2 1 10 8 11 20 20 20 18 16 15 13 13 13 12 11 11 11 10 10 10 10 10 11 11 12 12 12 13 13 13 13
2 2 5 5 5 1 5 5 5 6 4 3 3 4 4 2 1 3 3 9 9 15 19 18 21 19 17 15 15 14 13 11 11 11 10 10 10 10 10 10 10 11 11 11 12 12 12 12 13
1 3 4 5 5 6 5 5 7 4 2 3 3 1 4 3 2 4 5 10 10 15 18 18 21 19 18 16 15 14 13 12 10 10 9 9 9 9 9 9 10 10 10 11 11 11 11 11 12
3 4 5 4 5 6 5 5 4 1 0 2 4 2 2 1 1 2 8 11 11 12 16 19 21 20 18 17 16 14 13 12 11 10 9 9 9 9 9 8 9 9 9 10 10 10 10 10 10
4 4 4 1 4 4 5 4 3 2 2 2 5 5 3 0 2 5 10 12 13 10 15 18 21 20 19 17 16 15 14 12 11 10 9 9 9 8 8 7 7 8 8 8 9 9 9 9 9
4 5 4 3 4 5 4 3 3 4 3 2 6 5 4 1 4 6 9 10 10 11 14 16 20 20 19 18 16 15 14 13 11 10 9 9 8 7 6 6 6 6 6 7 7 7 8 8 8
4 4 5 4 2 4 3 2 4 4 4 5 8 6 4 2 4 8 8 9 8 11 12 13 17 19 19 18 17 16 14 13 12 10 9 8 7 6 6 5 4 4 4 4 5 6 6 6 7
5 5 3 2 2 4 3 0 2 5 3 1 6 7 5 3 7 9 8 7 7 7 9 11 12 15 17 17 17 16 15 14 12 11 9 8 7 5 5 5 3 2 2 2 2 3 4 5 5
4 4 2 4 4 3 2 1 1 1 3 1 2 3 0 7 10 10 6 5 7 8 7 8 9 12 14 15 16 17 15 14 13 11 10 9 7 6 4 5 4 2 2 1 1 2 3 4 4
4 3 5 4 4 3 2 1 1 2 1 1 3 2 4 7 9 10 9 11 12 13 11 8 8 11 13 13 14 14 14 13 13 11 11 10 8 6 5 5 5 4 3 3 3 3 3 3 4
5 6 5 4 4 3 2 2 1 3 5 7 8 6 6 7 8 10 10 10 12 12 12 11 9 11 12 11 11 11 11 11 11 12 11 10 9 7 5 5 6 6 5 5 4 3 3 4 5
4 5 4 4 2 2 3 3 3 6 10 7 6 4 7 9 11 12 12 10 9 9 13 12 10 10 11 12 10 10 9 9 9 11 12 10 8 7 6 6 7 7 6 6 5 5 5 6 7
4 4 4 4 4 4 4 6 5 8 9 4 2 4 8 10 10 9 7 7 8 10 12 13 12 11 10 10 9 9 9 10 11 11 12 12 9 7 7 7 7 8 8 7 6 6 6 6 7
4 3 4 5 5 4 6 6 4 11 6 4 6 8 9 10 10 7 7 8 9 10 12 12 14 13 11 8 7 8 10 10 11 11 11 12 11 9 7 7 7 7 8 8 7 6 5 6 6
1 2 6 5 3 3 3 7 8 10 3 6 8 8 8 9 8 9 9 8 9 9 10 13 14 13 12 10 9 9 10 10 9 9 11 11 11 10 8 5 5 7 7 6 5 5 4 4 4
3 3 4 6 3 1 4 9 10 4 4 8 8 8 8 8 8 7 7 7 7 7 9 11 12 13 12 9 9 8 9 9 8 8 8 9 9 9 7 5 4 6 5 4 3 2 2 3 3
2 2 4 7 3 2 4 9 10 3 4 9 9 9 8 8 7 6 5 5 5 7 9 10 11 13 12 9 8 7 7 7 7 7 6 6 7 7 6 4 4 4 3 2 2 1 1 2 3
6 5 5 6 4 2 6 11 14 8 8 11 11 10 9 10 9 5 3 3 4 5 7 9 9 10 10 8 6 5 5 4 5 5 5 5 5 5 5 3 3 3 2 1 1 1 1 2 3
6 5 7 8 5 4 10 14 17 12 9 12 12 11 12 12 6 4 4 4 4 5 7 9 10 10 10 7 6 5 4 3 3 3 5 5 5 5 5 3 2 2 2 1 1 1 0 1 1
5 5 7 9 5 5 8 13 14 12 10 12 13 13 13 10 7 6 6 4 5 6 7 9 10 11 10 7 5 4 4 4 3 4 5 5 5 5 4 4 2 2 2 2 1 1 1 1 1
7 7 8 9 7 4 6 10 9 9 7 9 10 10 10 13 12 10 8 6 6 6 8 9 10 10 9 9 7 6 5 4 3 2 2 4 5 6 6 5 4 3 2 2 1 1 1 0 1
8 9 9 6 4 6 2 7 9 9 10 11 11 10 11 10 11 10 9 8 7 6 6 8 9 9 9 10 10 9 6 4 4 3 3 3 6 6 6 6 5 4 2 2 1 1 1 2 1
9 4 5 3 4 5 3 5 10 8 10 13 10 10 9 10 12 12 10 9 7 7 7 8 9 9 8 8 10 9 6 5 4 4 4 4 4 5 6 6 5 3 2 2 1 1 1 2 2
6 6 5 5 3 5 6 7 9 7 9 9 8 7 8 9 10 9 8 8 7 6 7 8 9 8 8 9 8 9 10 8 7 5 4 3 2 2 4 5 4 3 2 1 0 1 1 2 2
6 5 2 4 2 7 4 5 11 13 10 10 13 10 8 9 10 11 11 11 10 9 9 8 10 8 8 9 8 9 9 9 8 7 5 4 2 1 1 2 2 1 1 0 0 1 1 2 3
8 11 8 6 6 5 3 8 10 12 10 10 10 7 7 10 11 12 13 12 12 11 10 10 10 9 8 9 8 7 8 6 5 6 5 5 3 3 2 2 1 1 0 0 0 1 2 2 3
8 7 8 5 2 4 7 8 11 10 10 7 5 4 7 10 11 12 11 11 11 12 11 11 11 9 9 9 8 8 7 7 6 6 5 4 3 3 3 2 1 0 0 1 1 2 3 3 4
8 10 6 6 5 6 7 6 6 10 10 9 7 7 7 8 10 11 11 11 10 10 9 9 9 9 8 9 8 7 7 7 7 6 6 5 4 3 3 2 1 1 1 2 2 3 4 4 5
7 7 6 7 6 6 5 7 7 9 9 10 10 7 7 10 11 11 10 10 9 9 9 9 9 9 8 9 8 8 7 6 6 6 5 5 4 4 3 3 2 2 3 3 3 4 5 5 6
9 10 10 8 7 6 4 8 8 7 8 8 8 6 6 8 9 9 10 10 10 11 10 11 10 10 9 9 8 8 7 7 6 6 5 5 4 4 3 3 3 3 4 4 5 6 6 6 7
Wind_Direction
343 356 51 56 57 55 233 244 224 238 238 222 155 150 151 160 165 196 324 149 145 152 173 176 168 167 165 160 153 143 135 129 126 120 113 105 99 92 86 80 75 72 68 65 63 61 60 59 58
351 29 54 65 95 135 258 239 220 221 213 114 98 119 134 186 193 148 149 170 152 157 170 175 169 168 167 162 153 146 140 137 132 125 118 112 104 97 90 83 78 73 70 67 64 62 61 60 57
5 45 86 85 132 184 224 223 218 251 198 148 131 142 168 176 180 182 181 159 147 158 169 173 170 169 168 164 158 153 148 145 141 134 126 119 111 102 94 86 81 76 72 69 66 63 61 60 57
79 50 59 92 191 215 224 230 199 277 43 155 149 149 250 217 214 178 142 146 145 157 168 174 171 172 170 167 164 160 157 154 150 144 136 128 118 107 97 90 84 79 74 70 67 63 61 58 55
60 80 74 89 235 246 244 250 203 206 221 176 153 166 230 66 80 125 141 148 151 155 166 176 174 175 173 170 169 166 163 160 157 153 147 137 125 114 104 96 89 81 75 70 65 62 59 55 52
57 71 103 205 252 275 266 230 172 204 218 175 154 168 245 51 126 143 146 147 151 155 163 177 178 179 177 175 174 171 170 167 164 162 156 147 136 127 118 107 96 85 76 69 62 58 54 52 48
107 107 159 195 253 285 277 200 175 188 202 207 168 162 266 279 140 134 131 131 139 154 161 178 184 182 181 180 178 176 175 174 171 170 166 157 149 144 138 124 112 98 82 69 57 50 44 39 36
124 110 136 206 217 262 294 188 170 172 199 156 150 165 228 207 119 109 105 117 137 156 168 179 184 181 181 182 181 180 180 180 178 177 172 166 162 161 154 145 140 127 103 73 48 36 29 23 20
95 81 183 213 204 251 302 69 17 162 122 114 209 207 262 118 119 113 114 132 159 177 183 182 182 180 179 180 183 183 185 185 182 181 177 171 166 164 163 166 186 201 211 235 335 351 358 6 5
97 147 221 223 211 233 291 223 255 101 46 267 270 240 112 137 149 154 167 175 183 189 191 187 183 179 177 181 184 183 186 187 184 180 178 172 171 173 178 188 212 237 254 260 280 308 342 352 332
157 190 230 249 235 228 248 251 221 167 238 226 225 220 166 173 180 184 188 187 192 190 191 191 186 181 178 178 178 178 180 182 181 179 179 178 179 184 191 206 229 245 250 252 264 285 297 299 296
181 230 224 250 231 212 226 240 235 207 228 233 225 204 180 191 198 201 200 198 184 183 194 192 186 182 182 178 176 175 175 178 178 184 185 179 178 188 199 210 224 233 236 235 242 253 269 276 279
208 246 238 245 256 247 247 242 246 248 247 264 251 194 200 206 214 217 212 198 187 192 195 193 189 187 181 175 176 176 178 182 186 190 193 190 186 196 205 216 225 230 230 227 231 241 253 264 272
229 246 281 268 250 238 228 255 231 255 247 236 226 222 220 218 219 216 212 207 201 199 195 191 192 190 181 179 176 178 182 186 189 194 198 199 198 200 205 215 220 229 229 228 229 237 247 259 266
135 335 316 289 253 250 209 280 240 249 215 237 239 237 234 232 226 222 220 215 208 201 191 190 192 187 183 182 179 179 182 183 188 197 203 203 204 206 205 206 217 229 228 224 228 239 242 253 261
70 34 298 291 284 234 169 266 271 268 213 249 252 245 240 238 231 232 231 223 211 194 185 188 187 184 183 180 176 174 176 178 186 192 195 201 204 206 198 199 218 226 213 208 212 216 239 258 269
24 270 259 294 278 185 199 258 278 282 231 256 255 247 242 245 240 232 228 219 205 190 178 177 177 178 176 168 161 157 158 165 172 172 176 186 193 193 186 192 206 197 182 192 205 203 219 264 280
229 229 248 262 281 218 248 262 275 272 247 254 254 247 241 238 235 218 208 197 174 167 163 163 161 163 158 148 138 131 127 133 139 149 159 164 165 167 166 167 172 159 148 166 171 219 226 251 282
190 210 252 260 259 250 258 267 276 273 259 255 251 240 234 234 227 192 175 152 140 143 150 156 156 157 155 154 152 147 147 138 123 116 124 131 133 138 139 133 125 127 145 161 161 180 273 301 338
202 237 263 282 271 226 268 274 273 265 248 242 242 238 230 221 203 190 174 163 159 153 151 152 156 158 160 158 150 140 134 127 118 108 95 101 114 119 124 123 116 113 122 96 92 104 74 350 30
212 214 238 259 307 307 302 295 283 281 260 257 246 238 226 211 201 190 178 171 160 159 159 156 154 153 150 140 126 110 98 92 100 97 89 71 96 102 106 109 108 102 110 109 98 122 137 255 329
234 224 223 250 287 288 328 295 285 277 286 270 254 239 227 211 193 185 178 173 171 167 153 145 145 144 145 146 148 146 145 148 153 138 119 83 84 92 100 103 104 100 100 105 109 125 156 166 248
212 211 194 226 228 280 275 258 280 295 281 275 264 245 230 208 190 183 180 173 162 154 148 142 136 136 142 146 147 140 130 129 123 114 110 92 72 81 93 100 100 98 98 108 103 103 157 182 203
156 88 66 52 82 270 234 220 277 255 247 277 284 261 231 199 182 172 161 150 147 145 144 142 137 135 139 139 141 142 140 139 135 132 126 112 92 76 80 94 95 97 96 100 121 163 198 210 221
133 124 351 317 292 251 229 220 253 254 254 261 276 272 226 189 176 170 168 167 164 161 158 151 144 141 144 141 142 146 146 148 149 150 149 144 137 126 110 96 98 97 102 134 171 193 243 228 232
179 164 179 220 238 279 269 237 255 266 271 268 269 260 204 186 183 183 181 176 172 169 165 159 155 149 150 147 147 145 143 144 147 150 151 156 160 166 157 135 125 121 92 315 230 232 254 240 244
159 195 182 165 213 267 267 277 298 286 289 296 292 252 206 193 189 187 182 179 176 174 174 168 161 155 157 153 146 145 147 147 148 147 145 150 159 163 152 144 144 167 264 267 249 249 263 260 254
161 151 125 156 209 247 268 263 251 277 289 303 293 264 229 199 191 187 184 184 181 177 170 166 163 161 158 156 154 153 153 151 148 145 153 158 162 159 154 158 175 222 258 263 249 260 262 261 262
141 152 157 163 179 192 253 262 231 246 274 289 289 266 224 203 197 192 189 183 176 169 168 170 167 159 159 160 154 149 151 149 148 154 164 166 167 171 178 191 209 239 256 256 253 259 264 262 267
177 177 162 180 213 203 219 265 265 255 275 277 286 275 228 206 197 191 184 176 176 179 178 177 174 170 168 160 154 154 152 152 156 166 173 172 177 187 196 206 229 249 255 256 255 264 266 262 266
Height
1522 1523 1525 1528 1533 1544 1544 1537 1533 1531 1529 1528 1528 1528 1530 1532 1535 1539 1535 1533 1534 1535 1536 1538 1540 1543 1545 1547 1549 1550 1551 1552 1553 1553 1554 1554 1554 1554 1553 1553 1553 1553 1553 1553 1553 1553 1552 1552 1552
1522 1523 1527 1528 1539 1551 1545 1534 1532 1528 1527 1527 1528 1528 1529 1530 1530 1532 1533 1533 1534 1535 1537 1538 1540 1543 1545 1547 1549 1550 1551 1552 1553 1554 1554 1554 1554 1554 1554 1554 1554 1554 1554 1554 1553 1553 1553 1553 1553
1522 1524 1526 1530 1541 1546 1538 1529 1528 1525 1526 1527 1528 1528 1528 1529 1530 1531 1533 1534 1534 1536 1537 1539 1541 1543 1545 1547 1549 1550 1552 1553 1553 1554 1555 1555 1555 1555 1555 1555 1555 1555 1555 1554 1554 1554 1554 1554 1554
1523 1525 1527 1534 1537 1534 1529 1525 1525 1525 1526 1526 1527 1528 1528 1529 1530 1531 1532 1533 1535 1536 1537 1539 1541 1543 1545 1547 1549 1550 1552 1553 1554 1555 1555 1556 1556 1556 1556 1556 1556 1556 1556 1555 1555 1555 1555 1555 1555
1523 1524 1531 1537 1533 1528 1525 1523 1524 1525 1525 1526 1526 1526 1527 1529 1529 1531 1532 1533 1535 1536 1537 1539 1541 1543 1545 1547 1549 1550 1552 1553 1554 1555 1556 1556 1556 1557 1557 1557 1557 1557 1557 1557 1556 1556 1556 1556 1556
1524 1525 1538 1540 1532 1526 1523 1522 1523 1523 1524 1525 1526 1526 1526 1527 1528 1530 1532 1533 1535 1536 1537 1539 1541 1543 1545 1547 1548 1550 1551 1553 1554 1555 1556 1557 1557 1557 1557 1557 1558 1558 1558 1558 1557 1557 1557 1557 1556
1524 1529 1535 1533 1531 1527 1522 1521 1521 1522 1523 1524 1524 1525 1525 1526 1528 1529 1531 1533 1534 1535 1537 1538 1540 1542 1544 1546 1548 1550 1551 1553 1554 1555 1556 1557 1557 1557 1558 1558 1558 1558 1558 1558 1558 1558 1558 1557 1557
1523 1527 1531 1532 1530 1526 1521 1520 1520 1521 1522 1523 1524 1524 1524 1525 1527 1528 1530 1531 1533 1534 1536 1538 1539 1541 1543 1545 1547 1549 1551 1552 1553 1555 1556 1557 1557 1558 1558 1559 1559 1559 1559 1559 1559 1558 1558 1558 1558
1523 1531 1534 1530 1527 1523 1520 1520 1520 1521 1521 1522 1522 1523 1523 1524 1525 1526 1528 1529 1531 1532 1534 1536 1538 1539 1542 1544 1546 1548 1550 1552 1553 1554 1555 1556 1557 1558 1558 1559 1559 1559 1559 1559 1559 1559 1559 1558 1558
1523 1532 1528 1523 1522 1521 1520 1519 1520 1520 1521 1521 1521 1521 1521 1522 1523 1524 1525 1526 1528 1530 1532 1534 1536 1538 1540 1542 1544 1547 1549 1550 1552 1553 1555 1556 1557 1557 1558 1559 1559 1559 1559 1559 1559 1559 1558 1558 1557
1521 1525 1522 1520 1519 1519 1519 1519 1518 1519 1520 1519 1519 1519 1519 1520 1521 1522 1523 1524 1526 1528 1530 1531 1534 1536 1538 1540 1542 1545 1547 1549 1551 1552 1554 1555 1556 1557 1557 1558 1558 1559 1559 1559 1558 1558 1557 1557 1556
1521 1520 1519 1518 1518 1518 1518 1517 1517 1516 1516 1516 1517 1517 1517 1517 1518 1519 1520 1522 1524 1525 1527 1529 1531 1533 1536 1538 1540 1543 1545 1547 1549 1551 1552 1554 1555 1555 1556 1557 1557 1557 1557 1557 1557 1557 1556 1555 1555
1519 1518 1517 1516 1516 1516 1516 1515 1515 1512 1512 1513 1513 1513 1513 1514 1515 1516 1518 1519 1521 1522 1524 1526 1529 1531 1533 1536 1538 1541 1543 1545 1548 1549 1551 1552 1553 1554 1555 1555 1555 1556 1556 1556 1555 1555 1554 1553 1552
1516 1516 1515 1514 1514 1514 1514 1512 1513 1508 1509 1509 1509 1509 1510 1510 1511 1513 1514 1515 1517 1519 1521 1523 1525 1528 1531 1533 1536 1539 1541 1544 1546 1548 1549 1550 1551 1552 1553 1553 1553 1554 1554 1553 1553 1552 1551 1551 1550
1515 1516 1515 1512 1512 1511 1513 1513 1508 1504 1505 1505 1505 1505 1506 1507 1508 1509 1510 1512 1513 1515 1517 1519 1522 1525 1528 1531 1534 1537 1539 1542 1544 1545 1547 1548 1549 1550 1550 1551 1551 1551 1551 1551 1550 1549 1549 1548 1547
1515 1519 1521 1513 1511 1510 1515 1515 1503 1502 1502 1501 1501 1501 1502 1503 1504 1505 1507 1508 1509 1511 1513 1515 1518 1521 1525 1528 1531 1534 1537 1540 1542 1543 1545 1546 1547 1547 1548 1548 1548 1548 1548 1547 1547 1546 1545 1544 1543
1521 1526 1523 1517 1510 1510 1513 1512 1501 1500 1500 1498 1498 1498 1498 1499 1500 1501 1503 1504 1505 1507 1509 1511 1514 1517 1521 1525 1529 1532 1535 1537 1539 1541 1542 1543 1544 1545 1545 1545 1545 1545 1544 1544 1543 1543 1542 1540 1539
1524 1524 1522 1520 1511 1511 1512 1509 1499 1497 1497 1495 1493 1493 1494 1494 1496 1498 1499 1500 1502 1503 1505 1507 1511 1515 1518 1522 1526 1529 1532 1534 1536 1538 1539 1540 1541 1542 1542 1542 1542 1541 1541 1541 1540 1539 1538 1537 1535
1516 1520 1521 1516 1510 1511 1510 1506 1497 1492 1492 1489 1487 1487 1487 1489 1491 1493 1495 1497 1498 1500 1502 1504 1507 1511 1515 1519 1522 1526 1529 1531 1534 1535 1537 1537 1538 1538 1539 1539 1538 1538 1538 1537 1536 1535 1534 1533 1531
1515 1519 1519 1514 1508 1509 1509 1503 1493 1487 1485 1482 1480 1479 1480 1483 1486 1488 1490 1493 1495 1497 1499 1501 1505 1509 1512 1516 1520 1523 1526 1529 1531 1532 1534 1534 1535 1535 1535 1535 1535 1535 1534 1534 1533 1532 1531 1530 1528
1515 1517 1516 1514 1509 1507 1508 1503 1492 1482 1479 1476 1474 1473 1474 1476 1479 1482 1486 1489 1492 1494 1496 1499 1502 1506 1510 1514 1518 1521 1524 1526 1528 1529 1531 1532 1532 1532 1532 1532 1532 1532 1531 1530 1530 1529 1528 1527 1526
1513 1508 1510 1511 1515 1518 1512 1515 1495 1484 1478 1472 1468 1467 1467 1470 1473 1477 1481 1485 1488 1492 1495 1498 1501 1504 1508 1511 1515 1518 1520 1523 1525 1527 1528 1529 1530 1530 1530 1529 1529 1529 1528 1527 1527 1526 1525 1524 1523
1504 1502 1507 1509 1513 1517 1514 1517 1499 1485 1479 1467 1463 1462 1462 1465 1468 1473 1477 1482 1486 1489 1492 1496 1499 1502 1506 1509 1513 1516 1518 1521 1523 1525 1526 1527 1527 1527 1527 1527 1526 1526 1525 1524 1524 1523 1522 1521 1520
1499 1504 1510 1516 1518 1522 1513 1516 1502 1485 1472 1465 1460 1459 1459 1461 1465 1470 1475 1479 1483 1486 1490 1493 1497 1500 1504 1507 1511 1514 1516 1518 1520 1522 1523 1524 1525 1525 1524 1524 1523 1523 1522 1521 1521 1519 1518 1517 1516
1498 1509 1520 1520 1524 1519 1508 1510 1496 1471 1465 1463 1459 1457 1457 1459 1462 1466 1471 1475 1479 1483 1487 1491 1495 1498 1502 1505 1509 1512 1514 1516 1518 1519 1521 1521 1522 1522 1521 1521 1520 1520 1519 1518 1517 1516 1515 1513 1512
1496 1501 1515 1521 1521 1516 1507 1506 1484 1465 1460 1458 1456 1454 1454 1456 1459 1463 1468 1472 1476 1481 1485 1489 1493 1496 1500 1503 1506 1509 1511 1514 1515 1517 1518 1518 1519 1518 1518 1518 1517 1517 1516 1514 1513 1512 1510 1509 1507
1494 1497 1496 1508 1513 1516 1508 1496 1480 1461 1456 1455 1453 1452 1451 1453 1457 1461 1466 1470 1474 1479 1483 1487 1491 1494 1498 1501 1504 1507 1509 1511 1512 1513 1514 1515 1515 1515 1515 1514 1514 1513 1512 1510 1509 1507 1506 1504 1502
1482 1488 1501 1507 1513 1513 1505 1497 1485 1465 1457 1454 1453 1451 1450 1452 1455 1459 1464 1469 1473 1477 1481 1486 1489 1493 1496 1499 1502 1504 1506 1508 1509 1510 1511 1512 1512 1512 1511 1511 1510 1509 1507 1506 1504 1502 1500 1498 1496
1485 1489 1491 1500 1505 1509 1507 1492 1468 1462 1458 1455 1451 1449 1449 1451 1453 1457 1462 1467 1471 1475 1479 1483 1487 1490 1493 1496 1499 1501 1503 1505 1506 1507 1508 1508 1508 1508 1508 1507 1505 1504 1503 1501 1499 1497 1495 1493 1491
1472 1477 1484 1494 1499 1502 1501 1487 1458 1457 1454 1452 1450 1448 1449 1450 1453 1456 1460 1464 1468 1472 1476 1479 1483 1487 1490 1493 1496 1498 1500 1501 1503 1504 1504 1504 1504 1504 1503 1502 1501 1499 1498 1496 1494 1492 1490 1487 1485